Home   Weather   Torrevieja   Past weeks

Flag for Spain Past Weather in Torrevieja, Spain — Yesterday and Last 2 Weeks

Now
57 °F

Refreshingly cool.


Feels Like: 53 °F
Forecast: 38 / 49 °F
Wind: 21 mph from Northwest

Location: Murcia / San Javier

Current Time: Jan 17, 2017 at 4:01:25 am

Latest Report: Jan 17, 2017 at 3:00 am


Visibility: N/A

Pressure: 29.98 "Hg

Humidity: 48%

Dew Point: 37 °F

Location of TorreviejaLocation

Past Weather in Torrevieja — Graph

°F

Torrevieja Temperature Yesterday

Maximum temperature yesterday: 67 °F (at 3:00 pm)
Minimum temperature yesterday: 51 °F (at 2:00 am)
Average temperature yesterday: 57 °F

High & Low Weather Summary for the Past Weeks

 TemperatureHumidityPressure
High69 °F (Jan 4, 3:00 pm)100% (Jan 6, 3:00 am)30.46 "Hg (Jan 6, 3:00 am)
Low35 °F (Jan 8, 8:00 am)28% (Jan 14, 2:00 pm)29.91 "Hg (Jan 10, 6:00 pm)
Average53 °F71%30.23 "Hg
* Reported Jan 2 2:00 am — Jan 17 2:00 am, Torrevieja, Weather by CustomWeather, © 2017

Note: Actual official high and low records may vary slightly from our data, if they occured in-between our weather recording intervals... More about our weather records

Advertising

Torrevieja Weather History for the Previous 24 Hours

Scroll right to see more
 ConditionsComfort  
Time TempWeatherWind HumidityBarometerVisibility
2:00 am
Tue, Jan 17
58 °FRefreshingly cool.17 mph46%29.99 "HgN/A
1:00 am59 °FRefreshingly cool.23 mph44%30.00 "HgN/A
12:00 am59 °FRefreshingly cool.17 mph42%30.01 "HgN/A
11:00 pm
Mon, Jan 16
59 °FRefreshingly cool.15 mph41%30.02 "HgN/A
9:00 pm59 °FRefreshingly cool.13 mph42%30.03 "HgN/A
8:00 pm59 °FRefreshingly cool.15 mph42%30.03 "HgN/A
7:00 pm60 °FPassing clouds.15 mph40%30.03 "Hg16 mi
6:00 pm62 °FRefreshingly cool.10 mph36%30.04 "HgN/A
5:00 pm65 °FMild.17 mph32%30.05 "HgN/A
3:00 pm67 °FMild.18 mph29%30.05 "HgN/A
2:00 pm65 °FMild.21 mph32%30.06 "HgN/A
1:00 pm64 °FPassing clouds.17 mph33%30.11 "Hg40 mi
12:00 pm61 °FRefreshingly cool.22 mph37%30.15 "HgN/A
11:00 am58 °FRefreshingly cool.16 mph39%30.18 "HgN/A
9:00 am53 °FCool.15 mph48%30.18 "HgN/A
8:00 am53 °FCool.17 mph48%30.16 "HgN/A
7:00 am52 °FPassing clouds.16 mph50%30.17 "Hg9 mi
6:00 am53 °FCool.18 mph48%30.17 "HgN/A
5:00 am52 °FCool.16 mph49%30.18 "HgN/A
Weather by CustomWeather, © 2017

See weather overviewHow to use our weather pages